Back to catalog

STARLINK-31590

AliveCommunicationsVLEO
NORAD 59198·PAYLOAD·🇺🇸 United States

Launched Mar 10, 2024 from Cape Canaveral Space Force Station

Loading…

Next Passes (next 24 hours)

TLE

FreshSource: CelesTrak SupGP

Epoch: Sep 14, 2026, 15:05 UTC

1 59198C 24045W   26257.62895833  .00006062  00000+0  21955-3 0  2578
2 59198  43.0025 105.8523 0001372 260.2063  85.2953 15.27578665    19

Track STARLINK-31590 in real time with AllMySat

Download on the App Store